Home > Weather > Bahía Blanca > Past weeks

Flag for Argentina Past Weather in Bahía Blanca, Buenos Aires, Argentina — Yesterday and Last 2 Weeks

Now
48 °F

Fog.


Feels Like: 48 °F
Forecast: 51 / 55 °F
Wind: No wind

Location: Mar Del Plata Aerodrome

Current Time: May 26, 2016 at 12:01:10 AM

Latest Report: May 25, 2016 at 11:00 PM


Visibility: 1 mi

Pressure: 30.27 "Hg

Humidity: 94%

Dew Point: 46 °F

Location of Bahía BlancaLocation

Past Weather in Bahía Blanca — Graph

°F

Bahía Blanca Temperature Yesterday

Maximum temperature yesterday: 59 °F (at 2:00 PM)
Minimum temperature yesterday: 39 °F (at 8:00 AM)
Average temperature yesterday: 50 °F

High & Low Weather Summary for the Past Weeks

 TemperatureHumidityPressure
High59 °F (May 25, 2:00 PM)100% (May 21, 1:00 AM)30.42 "Hg (May 21, 1:00 AM)
Low32 °F (May 19, 3:00 AM)55% (May 17, 2:00 PM)29.95 "Hg (May 15, 4:00 AM)
Average48 °F84%30.22 "Hg
* Reported May 10 11:00 PM — May 25 11:00 PM, Bahía Blanca, Weather by CustomWeather, © 2016

Note: Actual official high and low records may vary slightly from our data, if they occured in-between our weather recording intervals... More about our weather records

Advertising

Bahía Blanca Weather History for the Previous 24 Hours

Scroll right to see more
 ConditionsComfort  
Time TempWeatherWind HumidityBarometerVisibility
11:00 PM
Wed, May 25
48 °FFog.No wind94%30.27 "Hg1 mi
10:00 PM48 °FFog.No wind94%30.24 "Hg1 mi
9:00 PM50 °FFog.No wind88%30.21 "Hg2 mi
8:00 PM50 °FFog.No wind94%30.21 "Hg2 mi
7:00 PM54 °FFog.No wind82%30.21 "Hg3 mi
6:00 PM54 °FClear.6 mph82%30.18 "Hg4 mi
5:00 PM57 °FClear.No wind72%30.18 "Hg10 mi
4:00 PM59 °FSunny.No wind68%30.15 "Hg10 mi
3:00 PM59 °FSunny.5 mph68%30.15 "Hg10 mi
2:00 PM59 °FSunny.6 mph68%30.15 "Hg10 mi
1:00 PM55 °FSunny.5 mph77%30.18 "Hg10 mi
12:00 PM55 °FSunny.8 mph77%30.21 "Hg10 mi
11:00 AM50 °FSunny.8 mph94%30.21 "Hg10 mi
10:00 AM48 °FClear.6 mph94%30.21 "Hg5 mi
9:00 AM43 °FClear.No wind100%30.21 "Hg4 mi
8:00 AM39 °FFog.No wind93%30.21 "Hg1 mi
7:00 AM41 °FFog.No wind93%30.21 "Hg4 mi
6:00 AM45 °FClear.3 mph93%30.21 "Hg10 mi
5:00 AM43 °FClear.5 mph93%30.21 "Hg10 mi
4:00 AM45 °FClear.No wind93%30.21 "Hg10 mi
3:00 AM46 °FClear.No wind87%30.21 "Hg10 mi
2:00 AM46 °FClear.3 mph87%30.21 "Hg10 mi
1:00 AM48 °FClear.3 mph87%30.21 "Hg10 mi
12:00 AM46 °FClear.5 mph93%30.21 "Hg10 mi
Weather by CustomWeather, © 2016

See weather overviewHow to use our weather pages